Location: American Canyon
(38.1966°N, 122.1514°W)
Time: 17:22:51
(UTC+00:00)

Cosmos 1400 Rocket - Pass Details

Date: 29 October 2020
Orbit: 521 x 568 km, 81.2° (Epoch: 23 November)

Event Time Altitude Azimuth Distance (km) Brightness Sun altitude
Rises 12:44:08 0° 355° (N) 2,688 6.3 -21.7°
Reaches altitude 10° 12:46:20 10° 359° (N) 1,786 5.4 -21.3°
Maximum altitude 12:50:12 57° 79° (E) 622 3.3 -20.5°
Drops below altitude 10° 12:54:00 10° 159° (SSE) 1,754 5.7 -19.8°
Sets 12:56:09 0° 163° (SSE) 2,634 6.5 -19.4°
